COSMOS 2054 1 20391U 89101A 21061.60500891 .00000012 00000-0 00000+0 0 9995 2 20391 14.2136 349.1537 0005401 47.2892 218.3748 1.00165066114484 SL-12 R/B(2) 1 20394U 89101D 21061.18174568 -.00000184 00000-0 00000-0 0 9991 2 20394 15.0016 351.8623 0006551 156.9459 38.2961 0.98248454100180 COSMOS 2054 DEB 1 21648U 89101G 21061.63939069 -.00000199 00000-0 00000-0 0 9995 2 21648 15.1457 352.1745 0027172 291.6304 255.5760 0.97851758 96855 SL-12 DEB 1 25818U 89101Q 21032.37462100 -.00009429 00000-0 -51472-1 0 9990 2 25818 46.1874 269.6344 3198626 257.6083 308.5396 7.99422431643082